Theta_e
353 349 349 347 343 343 343 345 350 349 350 348 346 344 345 341 338 340 335 337 337 334
350 354 347 353 354 347 352 348 348 348 346 345 343 343 344 337 337 339 339 338 337 337
351 352 350 352 345 347 351 350 347 345 344 343 342 340 340 338 337 337 342 339 337 337
345 346 347 346 346 346 348 344 342 341 340 338 337 337 338 338 336 335 337 337 335 334
345 346 346 344 343 343 342 341 339 337 335 334 333 336 336 335 334 334 333 334 335 332
342 344 345 341 342 340 338 336 335 333 332 332 333 335 337 335 335 335 333 333 334 332
341 341 340 339 339 337 335 333 333 333 332 332 332 334 335 335 334 335 332 337 336 333
339 338 337 336 335 334 334 333 332 332 333 333 336 332 336 335 334 334 334 335 334 336
333 332 334 334 335 334 332 335 334 333 333 335 330 306 309 324 334 332 331 333 334 335
332 331 332 332 332 331 335 336 336 334 333 335 331 306 308 314 333 334 333 333 334 333
328 329 330 331 330 336 336 336 335 334 335 336 325 306 306 311 332 331 331 331 333 333
328 328 327 328 331 335 334 335 335 335 335 334 329 305 308 321 327 324 325 329 330 330
329 328 329 331 332 335 334 333 332 334 335 320 329 304 306 318 325 322 321 324 325 305
329 329 333 335 335 334 332 333 334 333 334 332 328 321 305 308 325 324 323 319 322 324
Wind_Speed
12 9 10 10 11 10 10 10 12 12 11 12 11 9 8 7 6 7 7 8 6 1
12 11 12 12 12 11 10 11 13 10 11 12 10 9 8 6 7 7 7 5 6 5
9 13 12 10 11 11 10 11 13 12 11 9 8 8 8 7 8 7 4 4 8 6
12 12 10 10 11 12 12 12 11 10 9 9 8 8 8 4 7 9 7 8 8 8
13 12 12 13 13 12 11 10 9 9 9 9 9 9 7 8 8 9 8 9 8 8
11 14 12 12 11 11 10 9 9 9 9 9 9 10 7 7 8 8 7 6 8 7
11 12 12 11 11 10 10 10 9 8 7 5 4 2 4 6 6 7 7 6 8 8
12 12 11 11 10 10 10 9 9 7 4 3 2 3 5 2 1 4 4 5 7 6
11 12 11 10 8 9 9 6 5 6 4 4 7 9 7 5 4 5 2 6 6 7
12 10 8 8 7 10 6 4 5 5 5 7 8 6 6 5 4 3 3 3 5 6
11 11 9 12 10 7 6 7 5 3 6 9 7 6 4 5 6 5 6 4 4 5
14 11 8 11 10 6 8 7 5 4 5 10 8 5 6 7 6 6 5 5 4 5
11 16 11 12 6 6 8 8 5 7 8 11 8 6 4 4 4 7 5 4 5 12
6 10 8 7 6 6 7 6 4 8 8 8 8 7 5 4 4 5 6 4 2 6
Wind_Direction
175 177 135 164 158 167 169 174 163 175 161 168 173 170 171 176 214 184 207 201 239 230
168 165 155 162 166 162 152 141 162 152 159 163 169 169 161 215 198 176 201 196 222 232
113 115 121 141 132 130 142 143 152 155 164 161 167 173 180 185 189 193 183 195 224 194
119 126 139 124 122 135 134 142 149 153 158 169 174 180 186 249 162 199 198 216 221 197
135 130 126 134 131 136 142 152 150 158 171 174 179 182 195 207 208 206 201 226 226 193
124 125 125 128 135 136 143 146 154 165 174 180 181 183 200 232 228 204 203 213 237 198
126 129 131 133 137 143 146 151 156 174 174 178 162 162 246 223 230 206 200 228 233 208
135 136 138 141 142 143 150 154 161 167 110 120 123 51 7 89 238 177 149 200 209 233
143 145 144 141 135 147 159 158 98 55 120 114 70 54 48 14 155 158 217 184 157 123
147 118 116 127 179 154 115 101 91 151 109 95 84 54 41 14 61 105 77 114 145 184
112 129 163 167 161 118 128 116 137 104 101 96 81 70 47 353 98 85 88 123 195 114
155 137 192 153 135 135 133 158 153 138 107 100 102 90 67 106 97 99 84 78 65 117
140 152 191 133 128 143 154 172 153 114 90 96 113 86 79 118 142 121 106 82 81 50
126 125 122 128 117 159 189 138 142 109 97 91 107 92 98 122 116 121 115 99 99 106